Fergus Falls, MN

10:34 AM CST on January 18, 2017 (GMT -0600)
Fergus Falls Municipal-Mickelson

Weather History for KFFM - October, 2012

Change the Weather History Date:

Monday, October 15, 2012

  Actual Average Record
Temperature  
Mean Temperature 46 °F -  
Max Temperature 62 °F 54 °F 83 °F (1953)
Min Temperature 30 °F 33 °F 20 °F (1991)
Degree Days  
Heating Degree Days 19    
Moisture  
Dew Point 35 °F    
Average Humidity 62    
Maximum Humidity 100    
Minimum Humidity 34    
Precipitation  
Precipitation 0.00 in - - ()
Sea Level Pressure  
Sea Level Pressure 29.77 in    
Wind  
Wind Speed 8 mph (SSE)    
Max Wind Speed 21 mph    
Max Gust Speed 26 mph    
Visibility 10 miles    
Events      
Averages and records for this station are not official NWS values.
T = Trace of Precipitation, MM = Missing Value Source: NWS Daily Summary

Daily Weather History Graph

Daily Weather History Graph

Search for Another Location

Airport or City:

Trip Planner

Search our weather history database for the weather conditions in past years. The results will help you decide how hot, cold, wet, or windy it might be!

Date:

Astronomy

Oct. 15, 2012 Rise Set
Actual Time 7:42 AM CDT 6:37 PM CDT
Civil Twilight 7:12 AM CDT 7:07 PM CDT
Nautical Twilight 6:37 AM CDT 7:42 PM CDT
Astronomical Twilight 6:02 AM CDT 8:17 PM CDT
Moon 7:57 AM CDT (10/15) 6:32 PM CDT (10/15)
Length of Visible Light 11h 55m
Length of Day
10h 54m
New Moon, 0% of the Moon is Illuminated
Oct 15
New Moon
Oct 21
First Quarter
Oct 29
Full
Nov 6
Last Quarter
Nov 13
New

Hourly Weather History & Observations

Time (CDT) Temp. Windchill Dew Point Humidity Pressure Visibility Wind Dir Wind Speed Gust Speed Precip Events Conditions
12:13 AM 39.2 °F 35.9 °F 33.8 °F 81% 29.91 in 10.0 mi NNW 4.6 mph - N/A   Clear
12:53 AM 37.4 °F - 33.8 °F 87% 29.91 in 10.0 mi Calm Calm - N/A   Clear
1:13 AM 33.8 °F - 30.2 °F 87% 29.91 in 10.0 mi Calm Calm - N/A   Clear
1:33 AM 35.6 °F - 33.8 °F 93% 29.91 in 10.0 mi Calm Calm - N/A   Clear
1:53 AM 35.6 °F - 33.8 °F 93% 29.92 in 10.0 mi Calm Calm - N/A   Clear
2:13 AM 35.6 °F - 33.8 °F 93% 29.92 in 10.0 mi Calm Calm - N/A   Clear
2:54 AM 35.6 °F - 33.8 °F 93% 29.91 in 10.0 mi Calm Calm - N/A   Clear
3:13 AM 33.8 °F - 33.8 °F 100% 29.90 in 10.0 mi Calm Calm - N/A   Clear
3:33 AM 33.8 °F 30.8 °F 32.0 °F 93% 29.90 in 10.0 mi SSE 3.5 mph - N/A   Clear
3:53 AM 33.8 °F 29.6 °F 32.0 °F 93% 29.90 in 7.0 mi South 4.6 mph - N/A   Clear
4:13 AM 35.6 °F 31.7 °F 33.8 °F 93% 29.89 in 7.0 mi SE 4.6 mph - N/A   Clear
4:53 AM 35.6 °F 31.7 °F 33.8 °F 93% 29.89 in 10.0 mi SE 4.6 mph - N/A   Clear
5:13 AM 35.6 °F 30.7 °F 33.8 °F 93% 29.89 in 10.0 mi SE 5.8 mph - N/A   Clear
5:53 AM 33.8 °F 28.6 °F 32.0 °F 93% 29.90 in 7.0 mi South 5.8 mph - N/A   Clear
6:13 AM 30.2 °F 25.4 °F 30.2 °F 100% 29.90 in 10.0 mi South 4.6 mph - N/A   Clear
6:33 AM 33.8 °F 29.6 °F 30.2 °F 87% 29.90 in 10.0 mi South 4.6 mph - N/A   Clear
7:13 AM 35.6 °F 30.7 °F 33.8 °F 93% 29.90 in 10.0 mi ESE 5.8 mph - N/A   Clear
7:33 AM 35.6 °F 29.9 °F 33.8 °F 93% 29.89 in 10.0 mi ESE 6.9 mph - N/A   Clear
7:53 AM 35.6 °F 29.2 °F 33.8 °F 93% 29.89 in 10.0 mi ESE 8.1 mph - N/A   Clear
8:13 AM 37.4 °F 32.8 °F 33.8 °F 87% 29.89 in 10.0 mi SE 5.8 mph - N/A   Clear
8:33 AM 37.4 °F 32.1 °F 33.8 °F 87% 29.89 in 10.0 mi SE 6.9 mph - N/A   Clear
8:53 AM 39.2 °F 35.0 °F 35.6 °F 87% 29.90 in 10.0 mi SSE 5.8 mph - N/A   Clear
9:13 AM 42.8 °F 38.6 °F 35.6 °F 76% 29.89 in 10.0 mi SSE 6.9 mph - N/A   Clear
9:33 AM 42.8 °F 37.5 °F 37.4 °F 81% 29.89 in 10.0 mi SSE 9.2 mph - N/A   Clear
9:53 AM 44.6 °F 40.2 °F 35.6 °F 71% 29.90 in 10.0 mi South 8.1 mph - N/A   Clear
10:13 AM 46.4 °F 41.9 °F 35.6 °F 66% 29.89 in 10.0 mi SSE 9.2 mph - N/A   Clear
10:34 AM 48.2 °F - 35.6 °F 62% 29.89 in 10.0 mi SSE 10.4 mph - N/A   Clear
10:53 AM 48.2 °F - 35.6 °F 62% 29.88 in 10.0 mi South 10.4 mph - N/A   Scattered Clouds
11:13 AM 51.8 °F - 35.6 °F 54% 29.87 in 10.0 mi SSE 12.7 mph - N/A   Mostly Cloudy
11:53 AM 53.6 °F - 35.6 °F 51% 29.85 in 10.0 mi SSE 15.0 mph - N/A   Clear
12:13 PM 55.4 °F - 35.6 °F 47% 29.83 in 10.0 mi SSE 16.1 mph - N/A   Clear
12:34 PM 55.4 °F - 35.6 °F 47% 29.82 in 10.0 mi SSE 16.1 mph - N/A   Scattered Clouds
1:13 PM 57.2 °F - 35.6 °F 44% 29.80 in 10.0 mi South 17.3 mph - N/A   Mostly Cloudy
1:34 PM 57.2 °F - 35.6 °F 44% 29.79 in 10.0 mi South 12.7 mph - N/A   Mostly Cloudy
1:53 PM 57.2 °F - 35.6 °F 44% 29.78 in 10.0 mi South 15.0 mph 18.4 mph N/A   Scattered Clouds
2:33 PM 60.8 °F - 35.6 °F 39% 29.76 in 10.0 mi South 16.1 mph - N/A   Scattered Clouds
2:53 PM 62.6 °F - 35.6 °F 37% 29.74 in 10.0 mi South 19.6 mph 24.2 mph N/A   Clear
3:13 PM 62.6 °F - 35.6 °F 37% 29.73 in 10.0 mi South 20.7 mph 24.2 mph N/A   Clear
3:33 PM 62.6 °F - 33.8 °F 34% 29.71 in 10.0 mi South 19.6 mph - N/A   Clear
3:53 PM 62.6 °F - 33.8 °F 34% 29.71 in 10.0 mi South 20.7 mph 26.5 mph N/A   Clear
4:13 PM 62.6 °F - 33.8 °F 34% 29.70 in 10.0 mi South 20.7 mph 24.2 mph N/A   Clear
4:33 PM 62.6 °F - 35.6 °F 37% 29.69 in 10.0 mi SSE 20.7 mph 24.2 mph N/A   Clear
4:53 PM 62.6 °F - 35.6 °F 37% 29.68 in 10.0 mi SSE 18.4 mph - N/A   Clear
5:13 PM 62.6 °F - 35.6 °F 37% 29.67 in 10.0 mi SSE 20.7 mph - N/A   Clear
5:33 PM 62.6 °F - 35.6 °F 37% 29.66 in 10.0 mi SSE 18.4 mph - N/A   Clear
5:53 PM 62.6 °F - 35.6 °F 37% 29.66 in 10.0 mi SSE 17.3 mph - N/A   Clear
6:13 PM 60.8 °F - 35.6 °F 39% 29.65 in 10.0 mi SSE 13.8 mph - N/A   Clear
6:33 PM 59.0 °F - 35.6 °F 42% 29.65 in 10.0 mi SSE 11.5 mph - N/A   Clear
6:53 PM 57.2 °F - 35.6 °F 44% 29.64 in 10.0 mi SSE 9.2 mph - N/A   Clear
7:13 PM 55.4 °F - 35.6 °F 47% 29.64 in 10.0 mi SSE 10.4 mph - N/A   Scattered Clouds
7:33 PM 55.4 °F - 35.6 °F 47% 29.63 in 10.0 mi SSE 10.4 mph - N/A   Scattered Clouds
7:53 PM 55.4 °F - 35.6 °F 47% 29.63 in 10.0 mi SSE 10.4 mph - N/A   Scattered Clouds
8:13 PM 55.4 °F - 35.6 °F 47% 29.62 in 10.0 mi SSE 12.7 mph - N/A   Scattered Clouds
8:33 PM 55.4 °F - 35.6 °F 47% 29.62 in 10.0 mi SSE 13.8 mph - N/A   Scattered Clouds
8:53 PM 55.4 °F - 35.6 °F 47% 29.61 in 10.0 mi SSE 12.7 mph - N/A   Scattered Clouds
9:13 PM 57.2 °F - 35.6 °F 44% 29.61 in 10.0 mi SSE 11.5 mph - N/A   Clear
9:33 PM 57.2 °F - 35.6 °F 44% 29.61 in 10.0 mi SSE 12.7 mph - N/A   Scattered Clouds
9:53 PM 57.2 °F - 35.6 °F 44% 29.60 in 10.0 mi SSE 12.7 mph - N/A   Mostly Cloudy
10:13 PM 57.2 °F - 35.6 °F 44% 29.59 in 10.0 mi SSE 13.8 mph - N/A   Mostly Cloudy
10:33 PM 57.2 °F - 35.6 °F 44% 29.58 in 10.0 mi SSE 11.5 mph - N/A   Overcast
10:53 PM 59.0 °F - 35.6 °F 42% 29.58 in 10.0 mi SSE 11.5 mph - N/A   Overcast
11:14 PM 59.0 °F - 35.6 °F 42% 29.57 in 10.0 mi SSE 12.7 mph - N/A   Overcast
11:33 PM 60.8 °F - 35.6 °F 39% 29.57 in 10.0 mi South 10.4 mph - N/A   Overcast
11:53 PM 59.0 °F - 35.6 °F 42% 29.57 in 10.0 mi South 15.0 mph 18.4 mph N/A   Mostly Cloudy